Weather History for Warrensburg, MO

Change the Weather History Date:

Saturday, December 8, 2012

  Actual Average (KSZL) Record (KSZL)
Temperature  
Mean Temperature 38 °F -  
Max Temperature 42 °F 44 °F 57 °F (1999)
Min Temperature 35 °F 27 °F 3 °F (2005)
Degree Days  
Heating Degree Days 26    
Moisture  
Dew Point 35 °F    
Average Humidity 82    
Maximum Humidity 93    
Minimum Humidity 70    
Precipitation  
Precipitation 0.01 in - - ()
Sea Level Pressure  
Sea Level Pressure 29.94 in    
Wind  
Wind Speed 6 mph (NE)    
Max Wind Speed 10 mph    
Max Gust Speed -    
Visibility 9 miles    
Events Rain    
Averages and records for this station are not official NWS values.
T = Trace of Precipitation, MM = Missing Value Source: NWS Daily Summary

Daily Weather History Graph

Daily Weather History Graph

Search for Another Location

Airport:

Trip Planner

Search our weather history database for the weather conditions in past years. The results will help you decide how hot, cold, wet, or windy it might be!

Date:

Astronomy

Dec. 08, 2012 Rise Set
Actual Time 7:21 AM CST 4:53 PM CST
Civil Twilight 6:51 AM CST 5:23 PM CST
Nautical Twilight 6:18 AM CST 5:56 PM CST
Astronomical Twilight 5:46 AM CST 6:28 PM CST
Moon 1:49 AM CST (12/8) 1:21 PM CST (12/8)
Length of Visible Light 10h 31m
Length of Day
9h 31m
Waning Crescent, 28% of the Moon is Illuminated
Dec 8
Waning Crescent
Dec 13
New
Dec 19
First Quarter
Dec 28
Full
Jan 4
Last Quarter

Hourly Weather History & Observations

Time (CST) Temp. Windchill Dew Point Humidity Pressure Visibility Wind Dir Wind Speed Gust Speed Precip Events Conditions
12:15 AM 42.8 °F 39.3 °F 39.2 °F 87% 29.94 in 10.0 mi WNW 5.8 mph - N/A   Overcast
12:35 AM 42.8 °F 39.3 °F 37.4 °F 81% 29.94 in 10.0 mi NNW 5.8 mph - N/A   Overcast
12:55 AM 42.8 °F 38.6 °F 37.4 °F 81% 29.93 in 10.0 mi NNW 6.9 mph - N/A   Overcast
1:35 AM 42.8 °F 39.3 °F 37.4 °F 81% 29.94 in 10.0 mi NNW 5.8 mph - N/A   Overcast
1:55 AM 42.8 °F 38.6 °F 37.4 °F 81% 29.94 in 10.0 mi NNW 6.9 mph - N/A   Overcast
2:15 AM 42.8 °F 41.1 °F 37.4 °F 81% 29.94 in 10.0 mi NNW 3.5 mph - N/A   Overcast
2:35 AM 41.0 °F 38.0 °F 37.4 °F 87% 29.94 in 10.0 mi NNW 4.6 mph - N/A   Overcast
2:55 AM 41.0 °F 37.1 °F 35.6 °F 81% 29.95 in 10.0 mi NNW 5.8 mph - N/A   Mostly Cloudy
3:15 AM 39.2 °F 35.0 °F 35.6 °F 87% 29.95 in 10.0 mi NNW 5.8 mph - N/A   Scattered Clouds
3:35 AM 37.4 °F 34.9 °F 35.6 °F 93% 29.95 in 10.0 mi North 3.5 mph - N/A   Clear
3:55 AM 37.4 °F 33.8 °F 35.6 °F 93% 29.95 in 10.0 mi North 4.6 mph - N/A   Clear
4:15 AM 37.4 °F 32.1 °F 33.8 °F 87% 29.95 in 7.0 mi North 6.9 mph - N/A   Scattered Clouds
4:35 AM 35.6 °F 31.7 °F 33.8 °F 93% 29.95 in 7.0 mi North 4.6 mph - N/A   Mostly Cloudy
4:55 AM 35.6 °F 29.9 °F 33.8 °F 93% 29.96 in 5.0 mi North 6.9 mph - N/A   Overcast
5:15 AM 35.6 °F 31.7 °F 33.8 °F 93% 29.96 in 7.0 mi North 4.6 mph - N/A   Overcast
5:35 AM 35.6 °F 31.7 °F 33.8 °F 93% 29.97 in 7.0 mi North 4.6 mph - N/A   Overcast
5:55 AM 35.6 °F 32.8 °F 33.8 °F 93% 29.97 in 7.0 mi NNE 3.5 mph - N/A   Overcast
6:15 AM 35.6 °F 30.7 °F 33.8 °F 93% 29.97 in 7.0 mi North 5.8 mph - N/A   Overcast
6:35 AM 35.6 °F 28.6 °F 33.8 °F 93% 29.97 in 7.0 mi NNE 9.2 mph - N/A   Overcast
6:55 AM 35.6 °F 31.7 °F 33.8 °F 93% 29.99 in 7.0 mi North 4.6 mph - N/A   Overcast
7:15 AM 35.6 °F 31.7 °F 33.8 °F 93% 30.00 in 7.0 mi North 4.6 mph - N/A   Overcast
8:15 AM 37.4 °F 33.8 °F 33.8 °F 87% 30.00 in 10.0 mi North 4.6 mph - N/A   Overcast
8:55 AM 37.4 °F 33.8 °F 33.8 °F 87% 30.00 in 10.0 mi NE 4.6 mph - N/A   Scattered Clouds
9:15 AM 39.2 °F 35.9 °F 33.8 °F 81% 30.00 in 10.0 mi NNE 4.6 mph - N/A   Clear
9:55 AM 41.0 °F 35.8 °F 33.8 °F 76% 30.00 in 10.0 mi NE 8.1 mph - N/A   Overcast
10:15 AM 41.0 °F 34.7 °F 33.8 °F 76% 30.00 in 10.0 mi NNE 10.4 mph - N/A   Overcast
10:35 AM 41.0 °F 35.8 °F 33.8 °F 76% 30.00 in 10.0 mi NNE 8.1 mph - N/A   Overcast
10:55 AM 41.0 °F 36.4 °F 33.8 °F 76% 30.00 in 10.0 mi NE 6.9 mph - N/A   Overcast
11:15 AM 41.0 °F 34.7 °F 33.8 °F 76% 30.00 in 10.0 mi ENE 10.4 mph - N/A   Overcast
11:55 AM 42.8 °F 37.5 °F 33.8 °F 70% 29.97 in 10.0 mi NE 9.2 mph - N/A   Overcast
12:15 PM 41.0 °F 34.7 °F 33.8 °F 76% 29.95 in 10.0 mi ENE 10.4 mph - N/A   Overcast
12:35 PM 41.0 °F 35.8 °F 33.8 °F 76% 29.95 in 10.0 mi ENE 8.1 mph - N/A   Overcast
12:55 PM 42.8 °F 38.6 °F 33.8 °F 70% 29.95 in 10.0 mi ENE 6.9 mph - N/A   Overcast
1:15 PM 42.8 °F 38.6 °F 33.8 °F 70% 29.95 in 10.0 mi East 6.9 mph - N/A   Overcast
1:35 PM 42.8 °F 38.6 °F 33.8 °F 70% 29.94 in 10.0 mi NE 6.9 mph - N/A   Overcast
1:55 PM 42.8 °F 37.0 °F 33.8 °F 70% 29.94 in 10.0 mi ENE 10.4 mph - N/A   Mostly Cloudy
2:15 PM 42.8 °F 39.3 °F 33.8 °F 70% 29.93 in 10.0 mi East 5.8 mph - N/A   Mostly Cloudy
2:55 PM 42.8 °F 40.1 °F 33.8 °F 70% 29.94 in 10.0 mi ENE 4.6 mph - N/A   Overcast
3:15 PM 42.8 °F 38.6 °F 33.8 °F 70% 29.93 in 10.0 mi ENE 6.9 mph - N/A   Overcast
3:55 PM 42.8 °F 38.6 °F 33.8 °F 70% 29.93 in 10.0 mi ENE 6.9 mph - N/A   Overcast
4:15 PM 42.8 °F 37.5 °F 33.8 °F 70% 29.92 in 10.0 mi ENE 9.2 mph - N/A   Overcast
4:35 PM 42.8 °F 37.0 °F 33.8 °F 70% 29.92 in 10.0 mi ENE 10.4 mph - N/A   Overcast
4:55 PM 42.8 °F 37.5 °F 35.6 °F 76% 29.92 in 10.0 mi East 9.2 mph - N/A   Overcast
5:15 PM 42.8 °F 37.0 °F 33.8 °F 70% 29.91 in 10.0 mi East 10.4 mph - N/A   Overcast
5:35 PM 42.8 °F 37.0 °F 33.8 °F 70% 29.90 in 10.0 mi East 10.4 mph - N/A   Overcast
5:55 PM 41.0 °F 35.2 °F 33.8 °F 76% 29.90 in 10.0 mi East 9.2 mph - N/A   Overcast
6:15 PM 41.0 °F 35.8 °F 33.8 °F 76% 29.90 in 10.0 mi East 8.1 mph - N/A   Overcast
6:35 PM 41.0 °F 35.2 °F 35.6 °F 81% 29.89 in 10.0 mi East 9.2 mph - N/A   Overcast
6:55 PM 41.0 °F 35.2 °F 35.6 °F 81% 29.89 in 10.0 mi East 9.2 mph - N/A   Overcast
7:15 PM 41.0 °F 35.2 °F 35.6 °F 81% 29.90 in 10.0 mi ENE 9.2 mph - N/A   Overcast
7:55 PM 41.0 °F 35.8 °F 35.6 °F 81% 29.89 in 10.0 mi East 8.1 mph - N/A   Overcast
8:15 PM 41.0 °F 38.0 °F 35.6 °F 81% 29.90 in 10.0 mi ENE 4.6 mph - N/A   Overcast
8:35 PM 41.0 °F 37.1 °F 35.6 °F 81% 29.89 in 7.0 mi NE 5.8 mph - N/A   Light Drizzle
8:55 PM 39.2 °F 35.0 °F 35.6 °F 87% 29.90 in 10.0 mi NE 5.8 mph - N/A Rain Light Rain
9:15 PM 39.2 °F 37.0 °F 35.6 °F 87% 29.90 in 5.0 mi NE 3.5 mph - N/A   Heavy Drizzle
9:55 PM 39.2 °F 34.2 °F 35.6 °F 87% 29.89 in 5.0 mi NE 6.9 mph - 0.01 in   Mostly Cloudy
10:15 PM 39.2 °F 35.0 °F 37.4 °F 93% 29.89 in 3.0 mi NE 5.8 mph - N/A   Drizzle
10:55 PM 39.2 °F 33.6 °F 37.4 °F 93% 29.89 in 5.0 mi ENE 8.1 mph - N/A   Overcast
11:15 PM 39.2 °F 35.0 °F 37.4 °F 93% 29.88 in 4.0 mi ENE 5.8 mph - N/A   Overcast
11:35 PM 39.2 °F 35.9 °F 37.4 °F 93% 29.88 in 5.0 mi East 4.6 mph - N/A   Overcast
11:55 PM 39.2 °F 35.9 °F 37.4 °F 93% 29.88 in 5.0 mi ENE 4.6 mph - N/A   Overcast